Regional Weather Roundup
Issued by NWS Sterling, VA

Home | Current Version | Previous Version | Graphics & Text | Print | Product List | Glossary On
Versions: 1 2 3 4 5 6 7 8 9 10 11 12 13 14 15 16 17 18 19 20 21 22 23 24 25 26 27
000
ASUS41 KLWX 221311
RWRLWX

REGIONAL WEATHER ROUNDUP
NATIONAL WEATHER SERVICE BALTIMORE MD/WASHINGTON DC
900 AM EDT SUN OCT 22 2017

Note: "FAIR" indicates few or no clouds below 12,000 feet
with no significant weather and/or obstructions to visibility.
 TC=TEMPERATURE CELSIUS

 * =Non NWS site. Station does not report precipitation (e.g. rain,
    snow, etc.), thunder, or fog.

DCZ001-MDZ009-015-VAZ040>042-051-053>054-221400-
WASHINGTON METRO

CITY           SKY/WX    TMP DP  RH WIND       PRES   REMARKS
WASHINGTON NAT PTSUNNY   57  53  86 CALM      30.41R
DULLES         MOSUNNY   54  50  86 CALM      30.40R
ANDREWS AFB    SUNNY     56  52  88 CALM      30.39R
FT BELVOIR     SUNNY     53  52  96 CALM      30.40R
QUANTICO       SUNNY     57  55  93 CALM      30.41R
COLLEGE PARK*  SUNNY     49  47  92 CALM      30.40R
LEESBURG*      SUNNY     54  50  87 CALM      30.41R
MANASSAS*      SUNNY     50  47  89 CALM      30.40R
GAITHERSBURG*  SUNNY     54  49  83 E3        30.40R

$$

MDZ006>007-011-014-221400-
BALTIMORE METRO

CITY           SKY/WX    TMP DP  RH WIND       PRES   REMARKS
BWI AIRPORT    MOSUNNY   54  50  86 CALM      30.40R
MD SCIENCE CTR   N/A     59  52  77 MISG      30.41R
MARTIN STATE   MOSUNNY   55  55 100 CALM      30.43R
ANNAPOLIS      MOSUNNY   61  59  93 CALM      30.40R
FORT MEADE*    SUNNY     45  45 100 CALM      30.42S

$$

MDZ012-015-019>023-221400-
MARYLAND EASTERN SHORE

CITY           SKY/WX    TMP DP  RH WIND       PRES   REMARKS
OCEAN CITY     SUNNY     65  62  90 SE5       30.41S
SALISBURY      FOG       54  54 100 CALM      30.41S VSB 1/2
CAMBRIDGE*     CLOUDY    52  52 100 CALM      30.41R FOG
EASTON*        MOSUNNY   55  54  94 CALM      30.44R

$$

MDZ017>025-221400-
SOUTHERN MARYLAND

CITY           SKY/WX    TMP DP  RH WIND       PRES   REMARKS
PATUXENT RIVER PTSUNNY   59  59 100 CALM      30.40R
ST INIGOES     SUNNY     58  57  97 CALM      30.40R
LEONARDTOWN*   NOT AVBL

$$

MDZ003>005-221400-
NORTH CENTRAL MARYLAND

CITY           SKY/WX    TMP DP  RH WIND       PRES   REMARKS
FREDERICK*     SUNNY     50  50 100 CALM      30.43R
HAGERSTOWN APT SUNNY     52  47  83 NW6       30.39R
WESTMINSTER*   CLOUDY    54  46  76 CALM      30.40R

$$

MDZ501>502-221400-
WESTERN MARYLAND

CITY           SKY/WX    TMP DP  RH WIND       PRES   REMARKS
OAKLAND*       SUNNY     54  46  76 SE6       30.34R
CUMBERLAND*    SUNNY     50  50 100 CALM      30.41S

$$

VAZ025>031-221400-
SHENANDOAH VALLEY

CITY           SKY/WX    TMP DP  RH WIND       PRES   REMARKS
WINCHESTER*    SUNNY     52  46  82 CALM      30.37S
FRONT ROYAL*   SUNNY     50  48  93 CALM      30.37R
LURAY*         SUNNY     52  50  93 CALM      30.38S
NEW MARKET*    SUNNY     50  47  91 CALM      30.38S
STAUNTON*      MOSUNNY   48  47  99 CALM      30.41R
WAYNESBORO*    SUNNY     54  53  94 CALM      30.39R

$$

WVZ021-048>050-054>055-221400-
EASTERN WEST VIRGINIA PANHANDLE

CITY           SKY/WX    TMP DP  RH WIND       PRES   REMARKS
MARTINSBURG    SUNNY     53  46  77 NE5       30.37R
PETERSBURG*    FOG       45  45  99 CALM      30.38R VSB<1/4

$$

VAZ036>039-050-221400-
CENTRAL FOOTHILLS

CITY           SKY/WX    TMP DP  RH WIND       PRES   REMARKS
CHARLOTTESVILL SUNNY     57  53  86 CALM      30.38R
CULPEPER*      SUNNY     50  48  93 CALM      30.41R
ORANGE*        SUNNY     52  50  93 CALM      30.39R
GORDONSVILLE*  SUNNY     51  51  98 CALM      30.38S
WARRENTON*     SUNNY     53  46  78 CALM      30.39R

$$

VAZ055>057-221400-
NORTH AND CENTRAL PIEDMONT

CITY           SKY/WX    TMP DP  RH WIND       PRES   REMARKS
FREDERICKSBRG* SUNNY     51  51 100 CALM      30.40R
STAFFORD*      SUNNY     50  50 100 CALM      30.44R

$$

NCZ024-NYZ072-PAZ021-071-VAZ022-071-221400-
OTHER REGIONAL OBSERVATIONS

CITY           SKY/WX    TMP DP  RH WIND       PRES   REMARKS
NEW YORK CITY  SUNNY     62  48  60 CALM      30.44R
PHILADELPHIA   PTSUNNY   54  53  97 CALM      30.43R
PITTSBURGH     PTSUNNY   54  52  93 CALM      30.30R
ROANOKE        SUNNY     54  52  93 CALM      30.40R
RICHMOND       MOSUNNY   56  55  97 E3        30.39R
RALEIGH        PTSUNNY   54  54 100 CALM      30.38R

$$

ANZ530>537-221400-
MARINE OBSERVATIONS

STATION/POSITION TIME  TEMP    WIND        PRES
                       AIR SEA DIR/SP/G
                 (UTC) (F)     (DEG/KT/KT) (MB)
THOMAS PT LIGHT  1300   61 68   CALM  /  1   N/A
BALT KEY BRIDGE  1248   58      50/  2/  3 1029.6R
COVE POINT       1248   63     100/  4/  5 1030.1R
LEWISETTA        1248   58 66  270/  3/  3 1029.4R
SOLOMONS ISLAND  1248   60 69  350/  2/  3 1029.1R
PINEY POINT      1230           CALM  /  1   N/A

$$





USA.gov is the U.S. government's official web portal to all federal, state and local government web resources and services.